sat.trackr.live / text

‹ back to catalog

LCS 1

NORAD 1361 · 1965-034C

PAYLOAD ACTIVE UNKNOWN

§ Identity

Operator
Country
US
Launch date
1965-05-06
Launch site
AFETR
Launch vehicle
Mass (kg)
RCS (m²)
0.81

Purposes: military

External: N2YO · Heavens-Above · Gunter

§ Orbital elements

Epoch: 2026-05-24T22:43:30.152928Z

Period
145.56 min
Inclination
32.1394°
Eccentricity
0.0012618
Mean motion
9.89310461 rev/d
Perigee alt
2,776.3 km
Apogee alt
2,799.4 km
Semi-major
9,166.0 km
B*
-8.1311e-4
RAAN
232.2118°
Arg perigee
38.6276°
Mean anomaly
321.5122°
Rev number
20,758

§ Raw data

LCS 11 01361U 65034C   26144.94687677  .00000002  00000+0 -81311-3 0  99992 01361  32.1394 232.2118 0012618  38.6276 321.5122  9.89310461207583

JSON: /api/v1/satellites/1361 · /tle

For live sub-satellite position, see the globe view (requires WebGL).

§ Visibility from observer

Set your observer location to see the next 7 days of passes ≥ 10°. The values pass through the URL so the page stays shareable.

No JS? Fill the form by hand. The geolocation button needs JavaScript.